CAPE
0 0 0 0 0 0 0 0 0 0 0 0 0 0 0 0 0 0 0 0 0 0 0 0 0 0 0 0 0 0 0 3 522 2069 1688 1842 1632 1109 487 538 918 1129 1160 1039
0 0 0 0 0 0 0 0 0 0 0 0 0 0 0 0 0 0 0 0 0 0 0 0 0 0 0 0 2 0 0 13 27 191 2333 1941 2209 2109 1572 1027 867 897 1291 1596
0 0 0 0 0 0 0 0 0 0 2 1 0 0 0 0 0 0 0 0 0 0 0 0 0 0 0 0 0 0 0 1 84 64 228 1332 2110 2088 2516 2274 1999 1908 1435 1690
0 0 0 0 0 0 0 0 0 0 4 0 2 0 2 0 0 0 0 0 0 0 0 0 0 0 0 0 0 0 0 0 45 36 251 790 543 853 929 2141 3444 2890 1673 1791
0 3 0 0 0 1 0 7 11 18 16 8 0 0 0 0 0 0 0 0 0 0 0 0 0 0 0 0 0 0 0 0 45 194 406 143 290 54 144 843 2897 2989 1308 2376
3 9 7 2 3 1 0 9 19 17 18 0 0 1 0 18 0 0 0 0 0 0 0 0 0 0 0 0 0 0 0 0 4 13 101 421 287 543 281 457 862 840 2054 3085
30 30 35 15 7 7 19 10 0 0 0 0 28 6 10 1 0 2 0 0 0 0 0 0 0 0 0 0 0 0 0 0 0 1 12 23 322 508 570 801 339 636 616 1250
105 115 122 108 11 18 71 80 57 0 0 42 1 0 6 0 0 0 0 0 0 0 0 0 0 0 0 0 0 0 0 0 0 0 0 17 134 0 38 351 209 231 362 623
264 171 42 61 63 38 55 149 99 79 60 21 22 60 26 0 0 0 0 0 0 0 0 0 0 0 0 0 0 0 0 0 0 0 4 4 101 270 168 770 1018 314 1077 707
199 165 207 163 72 62 177 130 170 138 87 0 0 30 20 13 8 0 0 0 1 1 0 0 0 0 0 0 0 0 0 0 0 0 0 16 48 52 255 514 941 1177 1540 1985
239 215 236 188 289 245 189 129 161 166 131 161 117 46 8 2 7 22 14 20 2 2 11 3 2 0 0 0 0 1 4 0 0 0 0 0 4 62 150 665 732 1075 1632 2092
184 226 252 164 209 233 259 22 152 241 181 203 139 48 1 0 21 42 4 2 15 37 15 10 5 2 3 3 2 0 0 2 2 0 0 0 0 0 394 491 644 1358 1549 1719
264 194 235 219 199 234 239 220 183 217 289 184 296 101 71 32 30 27 40 82 47 52 37 22 10 10 13 12 3 0 5 13 2 0 0 1 13 86 426 509 799 407 1435 1574
22 167 132 161 165 12 0 120 199 145 298 97 105 60 33 37 12 128 115 86 70 80 47 40 25 12 10 8 10 5 3 1 1 0 0 0 61 56 216 433 569 527 566 1467
45 49 80 71 56 46 38 48 77 112 187 114 73 65 39 54 58 104 127 101 90 68 73 64 53 46 25 17 7 2 0 0 0 0 0 0 36 48 49 226 345 503 424 1776
67 75 55 63 54 55 89 67 48 58 67 90 56 41 33 18 60 75 109 171 125 70 78 74 72 78 70 63 46 9 4 3 1 0 0 0 0 7 95 329 400 819 399 2162
70 116 79 109 62 82 78 71 50 45 55 53 55 42 80 55 109 184 176 148 133 121 72 88 95 76 72 52 32 14 13 9 10 3 0 0 4 13 70 191 223 758 995 2309
38 42 63 45 66 0 48 103 136 117 107 134 106 128 160 157 152 158 165 130 35 52 72 58 49 33 55 34 57 23 14 41 15 14 2 1 29 37 110 424 712 1033 1213 2253
51 24 128 70 100 72 85 205 231 216 140 106 129 164 173 201 121 72 111 104 79 59 40 39 52 39 123 46 18 6 25 52 39 21 24 31 65 169 343 487 919 600 1462 2243
19 30 76 116 180 82 177 122 209 168 83 346 319 222 113 69 113 125 195 37 6 9 46 50 64 35 41 38 42 84 78 60 52 41 47 101 205 608 765 880 780 486 1698 2426
31 22 13 76 78 87 172 266 212 157 226 247 141 123 94 70 77 80 13 30 34 30 43 45 11 41 41 17 39 0 82 39 66 54 54 166 696 911 980 950 424 913 2084 2306
135 132 146 140 115 176 229 131 167 263 204 158 124 68 70 55 42 44 44 41 49 33 39 13 0 0 16 12 4 2 8 50 80 48 55 458 632 829 887 816 301 1145 1512 1744
123 255 364 108 218 269 202 214 240 181 101 41 33 33 33 4 2 27 42 29 12 3 0 0 0 0 1 9 8 2 14 34 34 133 265 519 800 732 756 277 376 924 1243 1184
44 57 121 68 57 37 13 4 35 6 59 0 0 0 0 0 0 0 0 0 0 0 0 0 0 0 2 3 6 12 48 68 82 75 119 601 559 673 297 330 877 988 1052 1273
0 73 0 0 13 0 0 0 0 47 99 42 28 0 0 0 0 0 0 0 0 0 0 1 2 1 1 5 11 7 52 65 80 308 401 290 476 399 492 709 847 966 1174 1259
0 0 0 0 0 0 0 2 0 2 2 0 0 0 0 0 0 0 0 0 1 3 1 5 1 1 0 5 4 5 41 140 137 133 271 290 125 70 457 893 771 762 1084 751
CIN
0 0 0 0 0 0 0 0 0 0 0 0 0 0 0 0 0 0 0 0 0 0 0 0 0 0 0 0 0 0 -113 -202 -203 -36 -52 -50 -87 -163 -286 -285 -251 -222 -199 -196
0 0 0 0 0 0 0 0 0 0 0 0 0 0 0 0 0 0 0 0 0 0 0 0 0 0 0 0 -232 -1 0 -315 -263 -203 -44 -57 -39 -62 -111 -194 -263 -275 -207 -160
0 0 0 0 0 0 0 0 0 0 -1 0 0 0 0 0 0 0 0 0 0 0 0 0 0 0 0 0 0 0 0 -82 -266 -255 -169 -99 -98 -45 -47 -54 -73 -191 -188 -109
0 0 0 0 0 0 0 0 0 0 0 0 0 0 0 0 0 0 0 0 0 0 0 0 0 0 0 0 0 0 0 0 -336 -289 -165 -116 -116 -98 -77 -60 -21 -92 -154 -95
0 0 0 0 0 0 0 0 0 0 0 0 0 0 0 0 0 0 0 0 0 0 0 0 0 0 0 0 0 0 0 0 -190 -153 -149 -235 -154 -242 -153 -66 -19 -42 -210 -116
0 0 0 0 0 -1 -2 0 0 0 0 0 0 0 0 0 0 0 0 0 0 0 0 0 0 0 0 0 0 0 0 0 -227 -207 -187 -132 -192 -150 -199 -171 -113 -101 -50 -17
-3 -1 -1 0 0 0 -1 0 0 0 0 0 0 0 0 -2 0 0 0 0 0 0 0 0 0 0 0 0 0 0 0 0 0 -71 -206 -217 -109 -101 -162 -126 -162 -102 -68 -28
0 -1 -2 -10 -7 0 -1 0 0 0 0 -3 -2 0 0 0 0 0 0 0 0 0 0 0 0 0 0 0 0 0 0 0 0 0 0 -190 -149 0 -254 -140 -171 -158 -116 -83
0 0 -25 -52 -21 -6 -1 -2 0 -2 0 -3 -1 -1 -2 0 0 0 0 0 0 0 0 0 0 0 0 0 0 0 0 0 0 -12 -85 -78 -97 -85 -143 -6 -16 -152 -40 -80
-1 0 -1 -3 -2 -8 -1 -1 0 0 0 0 0 -1 -3 -4 0 0 0 0 0 0 0 0 0 0 0 -1 0 0 0 0 0 0 0 -118 -68 -68 -19 -1 0 -7 -8 -11
0 -5 0 -1 0 0 -1 0 0 0 -3 0 0 0 -26 -6 -3 0 -1 -1 -1 0 0 0 0 0 0 0 0 -1 0 0 0 0 0 0 -33 -76 -26 0 0 0 -2 -6
-1 0 0 0 -1 0 -1 -6 0 0 0 0 0 0 -6 -2 -1 0 0 0 0 -1 -1 0 0 0 0 0 -1 0 0 -1 0 0 0 0 0 0 -1 -2 0 0 0 -5
0 0 0 0 -1 -1 0 0 -1 0 0 0 0 0 -5 -2 -1 -6 -16 0 -1 -1 -1 -1 0 0 0 -1 -1 0 0 -1 0 0 0 -2 -23 -62 -1 -1 0 -10 0 0
-22 0 0 0 0 -8 0 0 0 0 0 0 -1 -1 -9 -12 -4 -1 -1 -2 -1 -1 -1 -1 -1 0 0 0 0 -1 0 0 0 0 0 0 -13 -19 -52 -7 -1 -4 -22 0
0 -2 0 0 -1 0 -1 -1 0 0 0 0 0 -1 -2 -5 -3 -2 -1 0 -1 -1 -1 -1 -1 0 0 0 -1 0 0 0 0 0 0 0 -71 -43 -52 -52 -11 -2 -28 0
0 -2 0 -2 -1 -1 0 0 -2 0 0 -2 0 0 0 -10 -6 0 -3 -1 -1 -2 0 -1 -1 0 -1 0 -1 0 0 0 0 0 0 0 -3 -124 -39 -23 -15 0 -21 0
0 0 0 0 -1 -1 0 0 -1 0 0 0 -1 -1 0 -2 -1 -1 0 -1 -1 -1 -4 -10 -18 -1 -1 0 -1 0 0 0 0 0 0 0 -177 -160 -81 -16 -32 0 0 0
0 0 0 0 0 0 -2 -1 0 0 0 -1 -1 -3 -5 -3 -14 -11 -1 0 -3 -2 -3 -7 -1 -1 0 0 0 0 0 0 0 0 0 -73 -193 -145 -71 -4 -1 0 0 0
0 0 0 0 0 -1 -6 -7 -9 -1 0 -3 -1 0 0 -1 -1 0 -1 -1 -12 -9 0 0 0 0 0 -1 -2 -1 -5 0 0 0 0 -182 -136 -74 -15 -2 0 -4 0 0
0 0 0 0 0 0 0 -1 0 -1 0 -1 -1 -3 -9 -9 0 -5 -3 -28 -12 -10 0 0 0 -1 0 -3 -4 0 0 0 0 0 -61 -102 -57 -1 -1 0 -1 -17 0 0
0 -2 -1 -1 0 0 -2 0 0 0 0 0 0 0 -2 -1 0 -1 -8 -1 0 0 0 0 -2 0 0 -1 0 0 0 0 0 0 -35 -42 0 0 0 0 -12 0 0 -1
0 0 0 0 0 0 -1 -10 0 0 0 0 0 -16 -14 -16 0 0 0 0 0 0 0 0 0 0 -4 -1 0 0 0 0 0 0 -31 -1 -1 0 0 -1 -42 0 -2 -14
0 0 0 0 0 0 0 0 0 0 0 0 -1 0 0 0 0 0 0 0 0 0 0 0 0 0 -1 0 0 0 0 0 0 -4 0 0 0 0 -2 -38 -26 -1 -2 -3
0 0 -2 0 0 -1 0 -4 -1 0 0 0 0 0 0 0 0 0 0 0 0 0 0 0 0 0 -1 -1 0 0 0 0 -2 -5 -7 0 -3 -1 -27 -39 0 0 0 0
0 0 0 0 0 0 0 0 0 0 0 0 0 0 0 0 0 0 0 0 0 0 0 0 0 -2 -1 0 0 0 0 -1 -4 0 0 -4 0 0 -4 0 0 0 0 -12
0 0 0 0 0 0 0 -1 0 0 0 0 0 0 0 0 0 0 0 0 0 0 -1 0 0 0 -1 0 -1 0 -6 0 -1 0 -1 -1 -2 -68 0 0 0 0 0 -24
Wind_Speed
nan nan nan nan nan nan nan nan nan nan nan nan nan nan nan nan nan nan nan nan nan nan nan nan nan nan nan nan nan nan nan nan 75 64 68 53 58 51 57 39 45 41 39 36
nan nan nan nan nan nan nan nan nan nan nan nan nan nan nan nan nan nan nan nan nan nan nan nan nan nan nan nan nan nan nan nan nan 69 54 57 49 51 43 42 44 38 50 40
nan nan nan nan nan nan nan nan nan nan nan nan nan nan nan nan nan nan nan nan nan nan nan nan nan nan nan nan nan nan nan nan nan nan 66 57 66 42 54 51 44 61 55 36
nan nan nan nan nan nan nan nan nan nan nan nan nan nan nan nan nan nan nan nan nan nan nan nan nan nan nan nan nan nan nan nan nan nan 71 70 54 60 57 53 54 50 43 28
nan nan nan nan nan nan nan nan nan nan nan nan nan nan nan nan nan nan nan nan nan nan nan nan nan nan nan nan nan nan nan nan nan 66 49 59 58 nan 55 46 50 54 58 39
nan nan nan nan nan nan nan nan nan nan nan nan nan nan nan nan nan nan nan nan nan nan nan nan nan nan nan nan nan nan nan nan nan nan 56 63 56 66 56 55 58 55 56 55
nan nan nan nan nan nan nan nan nan nan nan nan nan nan nan nan nan nan nan nan nan nan nan nan nan nan nan nan nan nan nan nan nan nan nan nan 64 55 52 60 55 50 55 55
15 11 11 30 nan nan nan nan nan nan nan nan nan nan nan nan nan nan nan nan nan nan nan nan nan nan nan nan nan nan nan nan nan nan nan nan 70 nan nan 62 60 61 54 53
15 19 nan nan nan nan nan 22 nan nan nan nan nan nan nan nan nan nan nan nan nan nan nan nan nan nan nan nan nan nan nan nan nan nan nan nan 71 65 71 70 68 62 61 57
19 20 13 32 nan nan 17 31 23 21 nan nan nan nan nan nan nan nan nan nan nan nan nan nan nan nan nan nan nan nan nan nan nan nan nan nan nan nan 48 58 68 64 59 55
21 20 11 24 21 13 13 16 24 19 19 18 15 nan nan nan nan nan nan nan nan nan nan nan nan nan nan nan nan nan nan nan nan nan nan nan nan nan 53 52 53 51 49 45
22 21 17 8 7 9 13 nan 13 30 22 21 16 nan nan nan nan nan nan nan nan nan nan nan nan nan nan nan nan nan nan nan nan nan nan nan nan nan 52 53 50 48 45 45
22 12 9 5 6 12 11 16 18 21 18 18 23 18 nan nan nan nan nan nan nan nan nan nan nan nan nan nan nan nan nan nan nan nan nan nan nan nan 52 51 51 46 44 41
nan 5 4 7 16 nan nan 13 14 20 21 nan 20 nan nan nan nan 7 11 nan nan nan nan nan nan nan nan nan nan nan nan nan nan nan nan nan nan nan 56 54 52 47 42 40
nan nan nan nan nan nan nan nan nan 15 13 13 nan nan nan nan nan 4 21 24 nan nan nan nan nan nan nan nan nan nan nan nan nan nan nan nan nan nan nan 55 53 50 44 37
nan nan nan nan nan nan nan nan nan nan nan nan nan nan nan nan nan nan 22 19 27 nan nan nan nan nan nan nan nan nan nan nan nan nan nan nan nan nan nan 57 55 50 46 37
nan 5 nan 3 nan nan nan nan nan nan nan nan nan nan nan nan 10 16 34 37 32 25 nan nan nan nan nan nan nan nan nan nan nan nan nan nan nan nan nan 56 55 50 48 42
nan nan nan nan nan nan nan 20 10 8 9 9 6 9 3 19 30 35 33 31 nan nan nan nan nan nan nan nan nan nan nan nan nan nan nan nan nan nan 37 54 56 57 50 41
nan nan 9 nan 7 nan nan 20 18 20 11 10 9 19 23 35 32 nan 28 31 nan nan nan nan nan nan 39 nan nan nan nan nan nan nan nan nan nan 30 31 38 61 59 50 41
nan nan nan 15 13 nan 10 27 21 19 nan 36 33 31 28 nan 28 31 43 nan nan nan nan nan nan nan nan nan nan nan nan nan nan nan nan 31 30 29 35 35 57 61 50 40
nan nan nan nan nan nan 18 16 18 15 18 16 17 19 nan nan nan nan nan nan nan nan nan nan nan nan nan nan nan nan nan nan nan nan nan 31 29 25 28 35 51 55 47 39
9 9 13 11 14 14 18 14 20 17 9 14 15 nan nan nan nan nan nan nan nan nan nan nan nan nan nan nan nan nan nan nan nan nan nan 26 29 27 30 37 45 46 41 40
3 11 11 11 13 7 10 16 16 21 24 nan nan nan nan nan nan nan nan nan nan nan nan nan nan nan nan nan nan nan nan nan nan 14 16 26 32 27 36 42 48 41 41 42
nan nan 13 nan nan nan nan nan nan nan nan nan nan nan nan nan nan nan nan nan nan nan nan nan nan nan nan nan nan nan nan nan nan nan 20 27 35 39 37 44 40 45 44 42
nan nan nan nan nan nan nan nan nan nan nan nan nan nan nan nan nan nan nan nan nan nan nan nan nan nan nan nan nan nan nan nan nan 23 34 43 42 44 38 46 41 38 38 38
nan nan nan nan nan nan nan nan nan nan nan nan nan nan nan nan nan nan nan nan nan nan nan nan nan nan nan nan nan nan nan 23 25 44 50 50 46 nan 39 39 45 56 46 39
Wind_Direction
nan nan nan nan nan nan nan nan nan nan nan nan nan nan nan nan nan nan nan nan nan nan nan nan nan nan nan nan nan nan nan nan 236 238 227 214 219 230 227 234 224 223 243 247
nan nan nan nan nan nan nan nan nan nan nan nan nan nan nan nan nan nan nan nan nan nan nan nan nan nan nan nan nan nan nan nan nan 237 244 230 227 236 245 255 253 233 260 243
nan nan nan nan nan nan nan nan nan nan nan nan nan nan nan nan nan nan nan nan nan nan nan nan nan nan nan nan nan nan nan nan nan nan 231 239 242 222 260 266 265 269 249 225
nan nan nan nan nan nan nan nan nan nan nan nan nan nan nan nan nan nan nan nan nan nan nan nan nan nan nan nan nan nan nan nan nan nan 234 228 229 247 251 237 256 255 277 243
nan nan nan nan nan nan nan nan nan nan nan nan nan nan nan nan nan nan nan nan nan nan nan nan nan nan nan nan nan nan nan nan nan 227 224 232 237 nan 234 239 252 263 262 255
nan nan nan nan nan nan nan nan nan nan nan nan nan nan nan nan nan nan nan nan nan nan nan nan nan nan nan nan nan nan nan nan nan nan 245 242 234 230 236 239 242 248 260 275
nan nan nan nan nan nan nan nan nan nan nan nan nan nan nan nan nan nan nan nan nan nan nan nan nan nan nan nan nan nan nan nan nan nan nan nan 244 246 248 247 243 248 249 260
277 250 278 300 nan nan nan nan nan nan nan nan nan nan nan nan nan nan nan nan nan nan nan nan nan nan nan nan nan nan nan nan nan nan nan nan 233 nan nan 249 250 251 253 256
252 245 nan nan nan nan nan 293 nan nan nan nan nan nan nan nan nan nan nan nan nan nan nan nan nan nan nan nan nan nan nan nan nan nan nan nan 243 241 236 236 238 241 252 251
271 265 237 257 nan nan 237 252 253 249 nan nan nan nan nan nan nan nan nan nan nan nan nan nan nan nan nan nan nan nan nan nan nan nan nan nan nan nan 245 241 242 247 250 250
273 269 276 259 273 247 252 278 271 246 248 234 201 nan nan nan nan nan nan nan nan nan nan nan nan nan nan nan nan nan nan nan nan nan nan nan nan nan 237 239 238 241 244 248
268 257 261 290 289 297 221 nan 182 248 232 244 248 nan nan nan nan nan nan nan nan nan nan nan nan nan nan nan nan nan nan nan nan nan nan nan nan nan 238 238 237 236 242 246
257 275 265 296 301 285 291 270 279 282 260 225 228 246 nan nan nan nan nan nan nan nan nan nan nan nan nan nan nan nan nan nan nan nan nan nan nan nan 236 236 236 234 229 236
nan 258 251 246 184 nan nan 199 219 253 244 nan 248 nan nan nan nan 161 257 nan nan nan nan nan nan nan nan nan nan nan nan nan nan nan nan nan nan nan 232 233 236 235 228 228
nan nan nan nan nan nan nan nan nan 272 226 229 nan nan nan nan nan 7 225 241 nan nan nan nan nan nan nan nan nan nan nan nan nan nan nan nan nan nan nan 232 231 231 232 227
nan nan nan nan nan nan nan nan nan nan nan nan nan nan nan nan nan nan 238 250 254 nan nan nan nan nan nan nan nan nan nan nan nan nan nan nan nan nan nan 228 228 229 230 229
nan 308 nan 5 nan nan nan nan nan nan nan nan nan nan nan nan 232 269 258 248 242 251 nan nan nan nan nan nan nan nan nan nan nan nan nan nan nan nan nan 226 224 223 222 223
nan nan nan nan nan nan nan 177 225 225 201 230 269 256 99 219 229 237 244 249 nan nan nan nan nan nan nan nan nan nan nan nan nan nan nan nan nan nan 221 218 217 219 216 218
nan nan 298 nan 348 nan nan 246 239 223 233 218 229 230 228 227 230 nan 260 254 nan nan nan nan nan nan 278 nan nan nan nan nan nan nan nan nan nan 228 227 216 207 207 209 215
nan nan nan 318 300 nan 278 288 281 277 nan 259 248 246 245 nan 251 250 243 nan nan nan nan nan nan nan nan nan nan nan nan nan nan nan nan 236 225 223 221 208 202 196 201 212
nan nan nan nan nan nan 264 264 285 307 268 230 234 227 nan nan nan nan nan nan nan nan nan nan nan nan nan nan nan nan nan nan nan nan nan 203 208 213 205 200 196 188 197 206
324 326 332 342 339 333 278 271 301 272 244 251 244 nan nan nan nan nan nan nan nan nan nan nan nan nan nan nan nan nan nan nan nan nan nan 199 188 193 199 185 181 180 193 206
300 296 311 303 310 233 251 282 284 286 292 nan nan nan nan nan nan nan nan nan nan nan nan nan nan nan nan nan nan nan nan nan nan 139 160 183 185 178 175 167 166 185 198 212
nan nan 334 nan nan nan nan nan nan nan nan nan nan nan nan nan nan nan nan nan nan nan nan nan nan nan nan nan nan nan nan nan nan nan 135 149 152 153 161 162 181 192 202 211
nan nan nan nan nan nan nan nan nan nan nan nan nan nan nan nan nan nan nan nan nan nan nan nan nan nan nan nan nan nan nan nan nan 146 141 144 142 147 159 176 178 189 199 213
nan nan nan nan nan nan nan nan nan nan nan nan nan nan nan nan nan nan nan nan nan nan nan nan nan nan nan nan nan nan nan 144 164 150 155 159 149 nan 172 180 189 197 208 211